EW9318 Weather Reports


time (UTC)temp
C
wind
direction
speed
KPH
gust
KPH
rain 1hr
cm
rain 24hr
cm
rain mn
cm
humidity
%
barometer
mb
20260504195056 23 227 24.1 35.4 0.00 0.00 0.00 32 998.5
20260504194516 23 241 20.9 38.6 0.00 0.00 0.00 32 998.5
20260504194016 23 251 22.5 38.6 0.00 0.00 0.00 33 998.7
20260504193517 23 237 22.5 35.4 0.00 0.00 0.00 32 998.6
20260504193016 23 233 16.1 43.5 0.00 0.00 0.00 34 998.6
20260504192516 23 233 22.5 45.1 0.00 0.00 0.00 32 998.8
20260504192017 22 227 25.7 45.1 0.00 0.00 0.00 31 998.8
20260504191537 22 240 25.7 40.2 0.00 0.00 0.00 34 998.8
20260504191016 22 235 20.9 40.2 0.00 0.00 0.00 35 998.8
20260504190537 22 240 27.4 40.2 0.00 0.00 0.00 33 998.8
20260504190016 23 235 22.5 40.2 0.00 0.00 0.00 32 998.8
20260504185519 23 212 19.3 40.2 0.00 0.00 0.00 34 998.8
20260504185017 23 238 24.1 40.2 0.00 0.00 0.00 32 998.8
20260504184516 22 241 22.5 40.2 0.00 0.00 0.00 30 998.8
20260504184017 23 223 19.3 41.8 0.00 0.00 0.00 29 998.9
20260504183516 22 232 25.7 41.8 0.00 0.00 0.00 29 999.0
20260504183017 23 235 24.1 46.7 0.00 0.00 0.00 29 999.0
20260504182516 23 210 20.9 46.7 0.00 0.00 0.00 31 999.0
20260504182015 23 202 17.7 37.0 0.00 0.00 0.00 32 999.0
20260504181516 22 205 19.3 38.6 0.00 0.00 0.00 31 999.0
20260504181015 22 210 17.7 38.6 0.00 0.00 0.00 32 999.1
20260504180537 22 239 20.9 35.4 0.00 0.00 0.00 31 999.1
20260504180016 22 225 20.9 33.8 0.00 0.00 0.00 30 999.2
20260504175516 22 233 20.9 33.8 0.00 0.00 0.00 30 999.2
20260504175015 22 218 17.7 35.4 0.00 0.00 0.00 33 999.2
20260504174517 22 230 20.9 37.0 0.00 0.00 0.00 31 999.3
20260504174016 22 218 19.3 45.1 0.00 0.00 0.00 31 999.4
20260504173516 22 220 22.5 45.1 0.00 0.00 0.00 30 999.4
20260504173016 22 235 19.3 27.4 0.00 0.00 0.00 31 999.5
20260504172556 22 228 14.5 43.5 0.00 0.00 0.00 32 999.6
20260504172015 22 233 20.9 43.5 0.00 0.00 0.00 30 999.7
20260504171537 22 232 17.7 35.4 0.00 0.00 0.00 31 999.7
20260504171015 22 227 19.3 35.4 0.00 0.00 0.00 30 1000.0
20260504170535 22 211 19.3 33.8 0.00 0.00 0.00 31 999.9
20260504151015 18 223 14.5 35.4 0.00 0.00 0.00 49 1001.2
20260504150515 18 226 16.1 35.4 0.00 0.00 0.00 51 1001.2
20260504141015 15 217 9.7 20.9 0.00 0.00 0.00 62 1001.9
20260504140515 15 218 8.0 17.7 0.00 0.00 0.00 63 1001.9
20260504130515 12 235 12.9 22.5 0.00 0.00 0.00 72 1002.4
20260504130155 12 243 9.7 22.5 0.00 0.00 0.00 73 1002.5
20260504110557 7 209 3.2 8.0 0.00 0.00 0.00 88 1002.1
20260504100517 7 0.0 0.0 0.00 0.00 0.00 85 1001.9
20260504081518 8 157 1.6 3.2 0.00 0.00 0.00 79 1002.6
20260504081037 8 170 0.0 3.2 0.00 0.00 0.00 79 1002.6
20260504080516 9 183 0.0 6.4 0.00 0.00 0.00 78 1002.6
20260504050516 10 185 8.0 17.7 0.00 0.00 0.00 76 1004.8
20260504050016 10 189 8.0 17.7 0.00 0.00 0.00 77 1004.8
20260504045516 10 179 8.0 17.7 0.00 0.00 0.00 77 1004.8
20260504045016 10 182 6.4 14.5 0.00 0.00 0.00 77 1004.9
20260504044516 10 186 6.4 14.5 0.00 0.00 0.00 77 1004.9
20260504044016 10 172 6.4 17.7 0.00 0.00 0.00 77 1005.0
20260504043516 10 166 8.0 17.7 0.00 0.00 0.00 77 1005.0
20260504043016 10 168 6.4 14.5 0.00 0.00 0.00 77 1005.1
20260504042516 10 185 6.4 25.7 0.00 0.00 0.00 77 1005.1
20260504042056 9 173 8.0 25.7 0.00 0.00 0.00 78 1005.1
20260504041537 9 174 6.4 17.7 0.00 0.00 0.00 77 1005.0
20260504041016 9 168 6.4 17.7 0.00 0.00 0.00 78 1005.1
20260504040516 9 169 8.0 16.1 0.00 0.00 0.00 78 1005.2
20260504040016 9 155 4.8 16.1 0.00 0.00 0.00 77 1005.2
20260504035517 9 158 4.8 16.1 0.00 0.00 0.00 77 1005.3
20260504035016 9 160 4.8 16.1 0.00 0.00 0.00 77 1005.3
20260504034536 9 168 4.8 14.5 0.00 0.00 0.00 77 1005.3
20260504034017 9 164 4.8 16.1 0.00 0.00 0.00 77 1005.3
20260504033516 9 166 4.8 16.1 0.00 0.00 0.00 77 1005.4
20260504033017 9 157 4.8 14.5 0.00 0.00 0.00 77 1005.5
20260504032516 9 178 4.8 14.5 0.00 0.00 0.00 76 1005.4
20260504032016 9 160 6.4 14.5 0.00 0.00 0.00 76 1005.5
20260504031516 9 169 6.4 14.5 0.00 0.00 0.00 76 1005.5
20260504031016 9 156 6.4 17.7 0.00 0.00 0.00 76 1005.5
20260504030516 9 165 8.0 17.7 0.00 0.00 0.00 76 1005.6
20260504030016 9 161 6.4 16.1 0.00 0.00 0.00 75 1005.6
20260504025516 9 164 6.4 16.1 0.00 0.00 0.00 75 1005.6
20260504025016 10 165 6.4 16.1 0.00 0.00 0.00 75 1005.4
20260504024517 10 164 4.8 16.1 0.00 0.00 0.00 74 1005.4
20260504024016 10 156 8.0 16.1 0.00 0.00 0.00 74 1005.4
20260504023516 10 155 8.0 14.5 0.00 0.00 0.00 74 1005.3
20260504023016 10 162 4.8 14.5 0.00 0.00 0.00 73 1005.4
20260504022536 10 166 6.4 16.1 0.00 0.00 0.00 73 1005.4
20260504022016 10 159 8.0 20.9 0.00 0.00 0.00 73 1005.3
20260504021516 10 173 9.7 22.5 0.00 0.00 0.00 72 1005.4
20260504021016 10 162 8.0 22.5 0.00 0.00 0.00 72 1005.4
20260504020517 10 172 6.4 17.7 0.00 0.00 0.00 72 1005.5
20260504020017 10 159 6.4 16.1 0.00 0.00 0.00 71 1005.4
20260504015516 10 168 8.0 16.1 0.00 0.00 0.00 71 1005.5
20260504015016 10 169 8.0 16.1 0.00 0.00 0.00 71 1005.4
20260504014516 10 162 8.0 19.3 0.00 0.00 0.00 70 1005.3
20260504014017 10 167 9.7 19.3 0.00 0.00 0.00 70 1005.2
20260504013516 10 163 9.7 24.1 0.00 0.00 0.00 70 1005.2
20260504013016 10 156 11.3 24.1 0.00 0.00 0.00 69 1005.1
20260504012517 10 165 9.7 24.1 0.00 0.00 0.00 69 1005.1
20260504012016 11 171 11.3 25.7 0.00 0.00 0.00 69 1005.2
20260504011517 11 170 11.3 25.7 0.00 0.00 0.00 68 1005.2
20260504011016 11 170 12.9 25.7 0.00 0.00 0.00 68 1005.2
20260504010516 11 171 11.3 25.7 0.00 0.00 0.00 68 1005.3
20260504010036 11 173 11.3 22.5 0.00 0.00 0.00 68 1005.3
20260504005517 11 173 11.3 24.1 0.00 0.00 0.00 67 1005.3
20260504005017 11 171 11.3 24.1 0.00 0.00 0.00 66 1005.3
20260504004516 11 173 11.3 27.4 0.00 0.00 0.00 66 1005.3
20260504004016 11 179 12.9 27.4 0.00 0.00 0.00 66 1005.3
20260504003516 11 168 11.3 25.7 0.00 0.00 0.00 65 1005.4
20260504003016 11 171 14.5 27.4 0.00 0.00 0.00 65 1005.3
20260504002516 11 176 12.9 27.4 0.00 0.00 0.00 64 1005.4
20260504002017 11 181 14.5 27.4 0.00 0.00 0.00 64 1005.5
20260504001516 11 176 9.7 27.4 0.00 0.00 0.00 64 1005.5
20260504001016 12 183 11.3 27.4 0.00 0.00 0.00 63 1005.6
20260504000536 12 191 12.9 27.4 0.00 0.00 0.00 62 1005.7
20260504000037 12 176 14.5 29.0 0.00 0.00 0.00 62 1005.7
20260503235516 12 190 11.3 40.2 0.00 0.00 0.00 62 1005.8
20260503235017 12 179 14.5 40.2 0.00 0.00 0.00 61 1005.7
20260503234537 12 188 16.1 30.6 0.00 0.00 0.00 61 1005.8
20260503234016 12 181 11.3 29.0 0.00 0.00 0.00 60 1005.8
20260503233537 12 188 14.5 35.4 0.00 0.00 0.00 60 1005.8
20260503233036 12 195 19.3 35.4 0.00 0.00 0.00 59 1005.8
20260503232517 12 192 16.1 33.8 0.00 0.00 0.00 59 1005.8
20260503232037 13 193 16.1 30.6 0.00 0.00 0.00 58 1005.9
20260503231516 13 192 14.5 32.2 0.00 0.00 0.00 59 1006.0
20260503231036 13 190 14.5 32.2 0.00 0.00 0.00 58 1006.0
20260503230517 13 188 11.3 32.2 0.00 0.00 0.00 58 1006.1
20260503230016 13 199 14.5 32.2 0.00 0.00 0.00 59 1006.2
20260503225516 12 183 12.9 29.0 0.00 0.00 0.00 60 1006.3
20260503225016 12 193 12.9 30.6 0.00 0.00 0.00 61 1006.4
20260503224516 12 190 17.7 41.8 0.00 0.00 0.00 60 1006.5
20260503224016 12 179 20.9 41.8 0.00 0.00 0.00 60 1006.6
20260503223536 12 193 12.9 30.6 0.00 0.00 0.00 61 1006.6
20260503223036 12 169 12.9 30.6 0.00 0.00 0.00 62 1006.8
20260503222516 12 179 16.1 27.4 0.00 0.00 0.00 62 1006.9
20260503222016 12 167 16.1 30.6 0.00 0.00 0.00 62 1007.0
20260503221517 11 162 16.1 30.6 0.00 0.00 0.00 62 1007.1
20260503221016 11 185 12.9 27.4 0.00 0.00 0.00 63 1007.2
20260503220516 11 184 14.5 35.4 0.00 0.00 0.00 63 1007.3
20260503220016 11 182 17.7 35.4 0.00 0.00 0.00 62 1007.4
20260503215516 11 192 14.5 30.6 0.00 0.00 0.00 63 1007.4
20260503215016 11 179 16.1 29.0 0.00 0.00 0.00 65 1007.4
20260503214517 11 182 11.3 25.7 0.00 0.00 0.00 65 1007.4
20260503214016 11 200 14.5 25.7 0.00 0.00 0.00 65 1007.4
20260503213516 11 170 14.5 25.7 0.00 0.00 0.00 64 1007.5
20260503213016 11 193 9.7 19.3 0.00 0.00 0.00 64 1007.5
20260503212516 11 202 9.7 19.3 0.00 0.00 0.00 64 1007.8
20260503212015 11 208 8.0 16.1 0.00 0.00 0.00 64 1007.6
20260503211516 11 207 8.0 37.0 0.00 0.00 0.00 64 1007.8
20260503211036 11 194 11.3 37.0 0.00 0.00 0.00 63 1007.7
20260503210516 11 201 12.9 25.7 0.00 0.00 0.00 63 1007.8
20260503210016 11 190 16.1 30.6 0.00 0.00 0.00 63 1007.8
20260503205516 11 182 19.3 30.6 0.00 0.00 0.00 63 1007.9
20260503205015 11 198 12.9 29.0 0.00 0.00 0.00 63 1007.9
20260503204516 11 201 12.9 29.0 0.00 0.00 0.00 63 1007.9
20260503204036 11 207 16.1 27.4 0.00 0.00 0.00 62 1008.1
20260503203536 11 201 11.3 27.4 0.00 0.00 0.00 63 1008.2
20260503203016 11 211 9.7 30.6 0.00 0.00 0.00 63 1008.3
20260503202515 11 220 14.5 30.6 0.00 0.00 0.00 62 1008.4
20260503202016 11 229 14.5 29.0 0.00 0.00 0.00 62 1008.6
20260503201556 11 226 14.5 27.4 0.00 0.00 0.00 62 1008.6
20260503201015 11 219 12.9 33.8 0.00 0.00 0.00 61 1008.8
20260503200515 11 235 20.9 33.8 0.00 0.00 0.00 61 1008.8
20260503200016 11 230 16.1 35.4 0.00 0.00 0.00 61 1008.8
20260503195516 11 226 19.3 35.4 0.00 0.00 0.00 61 1008.9